Location: Fontevrault
(47.1823°N, 0.0493°E)
Time: 17:52:35
(UTC+00:00)

H-2A R/B - Visible Passes

Search period start: 11 August 2022 00:00
Search period end: 21 August 2022 00:00
Orbit: 571 x 594 km, 98.1° (Epoch: 11 August)

Date Brightness Start Highest point End Pass type
(mag) Time Alt. Az. Time Alt. Az. Time Alt. Az.
11 Aug 6.1 01:13:49 10° NW 01:14:48 11° WNW 01:15:25 10° WNW visible
11 Aug 4.4 23:41:50 10° N 23:44:49 46° N 23:44:49 46° N visible
12 Aug 4.5 23:47:40 10° N 23:50:36 44° N 23:50:36 44° N visible
13 Aug 6.0 22:19:38 10° ENE 22:20:00 11° ENE 22:20:00 11° ENE visible
13 Aug 4.6 23:53:30 10° N 23:56:23 41° NNW 23:56:23 41° NNW visible
14 Aug 5.9 22:25:08 10° NE 22:25:46 12° ENE 22:25:46 12° ENE visible
14 Aug 4.8 23:59:21 10° N 00:02:10 37° NNW 00:02:10 37° NNW visible
15 Aug 5.8 22:30:42 10° NE 22:31:33 13° ENE 22:31:33 13° ENE visible
16 Aug 4.9 00:05:13 10° N 00:07:56 34° NNW 00:07:56 34° NNW visible
16 Aug 5.8 22:36:18 10° NE 22:37:19 15° NE 22:37:19 15° NE visible
17 Aug 5.1 00:11:05 10° N 00:13:42 31° NNW 00:13:42 31° NNW visible
17 Aug 5.7 22:41:56 10° NE 22:43:05 16° NE 22:43:05 16° NE visible
18 Aug 5.2 00:16:56 10° N 00:19:28 28° NNW 00:19:28 28° NNW visible
18 Aug 5.7 22:47:36 10° NE 22:48:51 17° NE 22:48:51 17° NE visible
19 Aug 5.3 00:22:50 10° N 00:25:14 25° NW 00:25:14 25° NW visible
19 Aug 5.7 22:53:17 10° NE 22:54:37 18° NE 22:54:37 18° NE visible
20 Aug 5.5 00:28:43 10° N 00:31:00 23° NW 00:31:00 23° NW visible
20 Aug 5.6 22:58:59 10° NNE 23:00:22 19° NE 23:00:22 19° NE visible
